SCD 1 1 22490U 93009B 26121.74106562 .00000471 00000+0 78123-4 0 9997 2 22490 24.9682 134.3466 0041967 6.8631 161.8041 14.46099871754385 TECHSAT 1B (GO-32) 1 25397U 98043D 26121.91459249 .00000064 00000+0 47909-4 0 9997 2 25397 99.0062 113.5096 0001545 33.8269 326.3007 14.24419145444744 SCD 2 1 25504U 98060A 26121.97102358 .00000418 00000+0 65781-4 0 9999 2 25504 24.9969 357.1698 0016707 355.4525 27.2393 14.45508307453630 DLR-TUBSAT 1 25757U 99029B 26121.93006152 .00000097 00000+0 35663-4 0 9995 2 25757 98.6691 115.9149 0015098 128.0582 232.1977 14.52414448426534 TERRA 1 25994U 99068A 26121.92635612 .00000395 00000+0 89448-4 0 9990 2 25994 97.9494 173.2985 0002897 44.3083 6.7958 14.61065519402858 MAROC-TUBSAT 1 27004U 01056D 26121.77353646 -.00000030 00000+0 19623-4 0 9996 2 27004 99.8062 297.7611 0019053 261.5207 115.5137 13.70260511219835 AQUA 1 27424U 02022A 26121.92269537 .00000836 00000+0 17633-3 0 9999 2 27424 98.4251 90.2925 0002110 89.4897 295.9563 14.62084894276512 SHIYAN-1 (SY-1) 1 28220U 04012A 26121.71304334 .00016796 00000+0 53600-3 0 9993 2 28220 97.8702 196.8069 0006163 172.4965 187.6369 15.32563278203971 AURA 1 28376U 04026A 26121.90368755 .00000878 00000+0 18775-3 0 9996 2 28376 98.3389 77.9858 0001720 82.6469 277.4927 14.61256580159457 IRS-P5 (CARTOSAT-1) 1 28649U 05017A 26121.63720299 .00001439 00000+0 15110-3 0 9999 2 28649 97.5342 146.8100 0001365 134.2480 225.8851 14.90928039136880 SINAH 1 1 28893U 05043D 26121.92469692 .00000371 00000+0 79924-4 0 9996 2 28893 98.2790 255.9923 0015569 63.9992 296.2812 14.64125655 93759 RESURS-DK 1 1 29228U 06021A 26121.95821871 .00002534 00000+0 14921-3 0 9998 2 29228 69.9319 99.2015 0003869 333.7495 26.3474 15.13019602 95589 ARIRANG-2 (KOMPSAT-2) 1 29268U 06031A 26121.99280058 .00000739 00000+0 14739-3 0 9995 2 29268 97.8304 308.6749 0013412 216.0117 304.7446 14.64631531 54715 LAPAN-TUBSAT 1 29709U 07001A 26121.92506244 .00000130 00000+0 21499-4 0 9991 2 29709 98.1341 120.1090 0011928 343.2695 16.8124 14.85900821 44289 HAIYANG-1B 1 31113U 07010A 26121.85750225 .00000089 00000+0 49685-4 0 9995 2 31113 98.3479 105.5053 0013181 344.1897 15.8873 14.31015272994000 COSMO-SKYMED 1 1 31598U 07023A 26121.94705576 .00003757 00000+0 33268-3 0 9999 2 31598 97.8867 313.4185 0001854 95.3057 264.8376 14.96880678 22877 TERRASAR-X 1 31698U 07026A 26121.35937758 .00000744 00000+0 38610-4 0 9997 2 31698 97.4448 129.7337 0001725 78.6242 281.5186 15.19146555 46116 WORLDVIEW-1 (WV-1) 1 32060U 07041A 26121.88217870 .00007737 00000+0 31853-3 0 9992 2 32060 97.3893 242.2737 0002346 179.6629 180.4611 15.24393263 35821 YAOGAN-3 1 32289U 07055A 26122.01282789 .00002478 00000+0 25883-3 0 9990 2 32289 97.8186 152.3449 0001299 100.2842 259.8522 14.90601982998987 COSMO-SKYMED 2 1 32376U 07059A 26121.91631729 .00000251 00000+0 38045-4 0 9993 2 32376 97.8884 306.1854 0001452 90.1344 270.0036 14.82146790995145 RADARSAT-2 1 32382U 07061A 26121.85703778 -.00000059 00000+0 -57979-5 0 9996 2 32382 98.5789 129.4492 0001236 83.5755 276.5568 14.29983334959336 CARTOSAT-2A 1 32783U 08021A 26121.91243999 .00000964 00000+0 13659-3 0 9997 2 32783 97.7676 172.1927 0010272 261.7334 98.2713 14.79178464971967 HUANJING 1A (HJ-1A) 1 33320U 08041A 26121.90930083 .00001183 00000+0 14840-3 0 9990 2 33320 97.6664 109.5456 0017646 293.0997 66.8358 14.83880973951545 HUANJING 1B (HJ-1B) 1 33321U 08041B 26121.99284211 .00001203 00000+0 15189-3 0 9995 2 33321 97.6505 112.9353 0035952 337.5617 22.4023 14.83234692951567 GEOEYE 1 1 33331U 08042A 26121.90329535 .00000489 00000+0 10086-3 0 9993 2 33331 98.1245 196.4190 0003874 188.5455 171.5683 14.64681429943374 THEOS 1 33396U 08049A 26121.89065049 -.00000273 00000+0 -10836-3 0 9992 2 33396 98.5608 180.6695 0001340 90.8746 269.2585 14.20125065911395 COSMO-SKYMED 3 1 33412U 08054A 26121.92364057 .00004914 00000+0 33445-3 0 9997 2 33412 97.8345 339.7243 0017442 66.1830 294.1223 15.06662212949976 YAOGAN-4 1 33446U 08061A 26121.81855840 .00001001 00000+0 12928-3 0 9992 2 33446 97.9293 55.6792 0013290 217.3981 142.6308 14.83112348938796 GOSAT (IBUKI) 1 33492U 09002A 26121.91088786 .00000442 00000+0 86482-4 0 9992 2 33492 98.0833 233.5847 0001374 108.8737 251.2617 14.67541511924672 DEIMOS-1 1 35681U 09041A 26121.92756736 .00000411 00000+0 67876-4 0 9997 2 35681 97.7342 281.1748 0001696 39.1455 320.9877 14.75187678900062 DUBAISAT-1 1 35682U 09041B 26121.89418979 .00001158 00000+0 17945-3 0 9998 2 35682 97.9979 255.6790 0009671 213.1735 146.8869 14.75039818898277 OCEANSAT-2 1 35931U 09051A 26121.94801455 -.00000145 00000+0 -73277-4 0 9995 2 35931 98.2301 113.4228 0015741 10.3985 349.7504 13.99648731872865 WORLDVIEW-2 (WV-2) 1 35946U 09055A 26121.88976755 .00000134 00000+0 58934-4 0 9993 2 35946 98.4688 195.9910 0004381 15.0890 345.0427 14.37930444868999 SMOS 1 36036U 09059A 26121.48806053 .00000265 00000+0 98522-4 0 9999 2 36036 98.4431 309.5056 0001213 93.8015 266.3312 14.39748079866735 YAOGAN-7 1 36110U 09069A 26121.91686145 .00000484 00000+0 74122-4 0 9992 2 36110 98.0128 8.0572 0024396 185.3472 174.7482 14.77963107882799 TANDEM-X 1 36605U 10030A 26121.42524479 .00000828 00000+0 42629-4 0 9997 2 36605 97.4451 129.7979 0001799 100.0487 260.0951 15.19146279879543 CARTOSAT-2B 1 36795U 10035A 26121.91741478 .00000976 00000+0 14017-3 0 9999 2 36795 97.9994 172.7531 0010873 348.1146 11.9807 14.78672675853017 YAOGAN-10 1 36834U 10038A 26121.99507090 .00001089 00000+0 13336-3 0 9993 2 36834 97.9011 145.7653 0001373 85.7523 301.4982 14.85203799850354 COSMO-SKYMED 4 1 37216U 10060A 26121.92897834 .00000832 00000+0 11106-3 0 9992 2 37216 97.8879 306.1992 0001310 80.3451 279.7910 14.82167579837716 RESOURCESAT-2 1 37387U 11015A 26121.91800044 .00000126 00000+0 77710-4 0 9998 2 37387 98.7662 189.6740 0011839 36.5482 323.6501 14.21601240779603 HAIYANG-2A 1 37781U 11043A 26121.97692447 -.00000109 00000+0 -67962-4 0 9990 2 37781 99.3400 125.6295 0007000 175.9861 184.1346 13.75696819740303 RASAT 1 37791U 11044D 26121.97898218 .00000442 00000+0 85250-4 0 9994 2 37791 98.0555 214.0868 0020252 342.8802 131.5984 14.68121066786409 SRMSAT 1 37841U 11058D 26121.91213606 .00000424 00000+0 86236-4 0 9996 2 37841 19.9735 339.5644 0011763 55.2079 333.0597 14.11564882751271 PLEIADES 1A 1 38012U 11076F 26121.97794203 .00000322 00000+0 79138-4 0 9990 2 38012 98.1988 197.6978 0000972 85.8303 87.1410 14.58541083765256 ZIYUAN 1-02C (ZY 1-02C) 1 38038U 11079A 26121.97097850 .00000434 00000+0 15720-3 0 9995 2 38038 98.4097 190.2408 0007730 87.1180 86.1338 14.38175559752569 ARIRANG-3 (KOMPSAT-3) 1 38338U 12025B 26121.97823184 .00000476 00000+0 10377-3 0 9996 2 38338 98.1147 80.2466 0003996 257.5494 102.5261 14.62164886744598 EXACTVIEW-1 (ADS-1B) 1 38709U 12039C 26121.89823159 .00000116 00000+0 69440-4 0 9993 2 38709 98.9711 238.2569 0009956 308.2630 51.7652 14.24970366716114 SPOT 6 1 38755U 12047A 26121.89149135 .00000236 00000+0 60741-4 0 9996 2 38755 98.2144 189.7361 0001221 86.4636 273.6702 14.58525412726304 PLEIADES 1B 1 39019U 12068A 26121.91064847 .00000187 00000+0 50034-4 0 9991 2 39019 98.1959 197.5964 0001040 89.8140 270.3179 14.58566735714103 GOKTURK 2 1 39030U 12073A 26121.96719269 .00000543 00000+0 86759-4 0 9999 2 39030 97.6846 321.7103 0002033 97.5017 262.6424 14.75497020717696 LANDSAT 8 1 39084U 13008A 26121.94765688 .00000319 00000+0 80657-4 0 9993 2 39084 98.1847 192.7753 0001261 102.8928 257.2412 14.57136110691162 SARAL 1 39086U 13009A 26121.95247609 .00000091 00000+0 49510-4 0 9995 2 39086 98.5562 309.1041 0002911 73.3464 286.8040 14.32844579688985 GAOFEN-1 1 39150U 13018A 26121.91345758 .00000959 00000+0 14449-3 0 9992 2 39150 97.9114 194.9170 0018299 57.8403 302.4579 14.76524833701414 VNREDSAT 1 1 39160U 13021B 26121.91297609 .00000445 00000+0 91700-4 0 9994 2 39160 97.9120 177.0978 0001292 90.4196 269.7155 14.64957475693512 ARIRANG-5 (KOMPSAT-5) 1 39227U 13042A 26121.87635830 .00001953 00000+0 14378-3 0 9998 2 39227 97.6189 309.2258 0002424 311.9766 48.1253 15.04520408696899 SKYSAT-A 1 39418U 13066C 26121.69272310 .00004239 00000+0 24422-3 0 9997 2 39418 97.3851 172.5706 0023107 114.0386 246.3267 15.12703821681458 DUBAISAT-2 1 39419U 13066D 26121.94896127 .00005492 00000+0 34281-3 0 9990 2 39419 97.4554 113.3206 0010897 182.3633 177.7547 15.09844676679414 GPM-CORE 1 39574U 14009C 26121.92772398 .00007740 00000+0 16958-3 0 9990 2 39574 64.9708 103.1528 0012090 261.4528 98.5243 15.44742165690661 SENTINEL-1A 1 39634U 14016A 26121.94466168 .00000070 00000+0 24652-4 0 9992 2 39634 98.1790 130.1500 0001384 80.9547 279.1809 14.59198739643274 KAZEOSAT 1 1 39731U 14024A 26121.94999060 .00000144 00000+0 56694-4 0 9994 2 39731 98.3222 195.5431 0001504 97.4679 262.6682 14.42060851631891 ALOS-2 1 39766U 14029A 26121.94592492 .00001267 00000+0 17641-3 0 9990 2 39766 97.9212 219.7708 0001649 85.2616 274.8784 14.79480845644740 KAZEOSAT 2 1 40010U 14033A 26121.88525485 .00000151 00000+0 23319-4 0 9991 2 40010 97.5441 323.9373 0010002 108.0120 252.2187 14.85413629642082 HODOYOSHI-4 1 40011U 14033B 26121.97291162 .00001141 00000+0 12921-3 0 9990 2 40011 97.5453 309.0303 0025177 97.9718 262.4358 14.88016235641933 DEIMOS-2 1 40013U 14033D 26121.89212110 .00001836 00000+0 17914-3 0 9997 2 40013 97.5901 357.9972 0002413 92.3390 267.8107 14.93598809630814 HODOYOSHI-3 1 40015U 14033F 26121.90444884 .00001407 00000+0 16822-3 0 9997 2 40015 97.6373 286.8223 0033814 145.0968 215.2474 14.85285443640751 SPOT 7 1 40053U 14034A 26121.95080809 .00000382 00000+0 87334-4 0 9996 2 40053 98.0660 185.6281 0001501 78.7570 281.3800 14.60916653630388 SKYSAT-B 1 40072U 14037D 26121.85945424 .00001473 00000+0 16750-3 0 9997 2 40072 98.3807 78.1985 0006945 72.5032 287.6941 14.87903614639076 WORLDVIEW-3 (WV-3) 1 40115U 14048A 26121.94319470 .00000879 00000+0 10944-3 0 9991 2 40115 97.8575 197.4144 0002910 99.6842 260.4701 14.84943739635044 GAOFEN-2 1 40118U 14049A 26121.95931947 .00000821 00000+0 11331-3 0 9993 2 40118 98.0140 186.2052 0008153 32.7027 327.4689 14.80848763632391 YAOGAN-21 1 40143U 14053A 26121.93410022 .00008840 00000+0 34928-3 0 9996 2 40143 97.1513 164.1687 0006464 251.3133 108.7405 15.25704313647903 YAOGAN-22 1 40275U 14063A 26121.87058769 -.00000053 00000+0 -17032-4 0 9990 2 40275 100.7653 272.3858 0005755 296.2161 63.8358 13.15529884553727 ASNARO 1 40298U 14070A 26121.93237255 .00006753 00000+0 32197-3 0 9998 2 40298 97.3465 199.2863 0002400 328.1738 31.9352 15.19413156636986 YAOGAN-24 1 40310U 14072A 26121.92209648 .00000522 00000+0 83144-4 0 9996 2 40310 98.1412 258.8872 0015060 55.0461 305.2160 14.76161381616893 CBERS 4 1 40336U 14079A 26121.96411779 .00000086 00000+0 44352-4 0 9998 2 40336 98.3388 180.2440 0001525 125.2757 234.8572 14.35546559597322 YAOGAN-26 1 40362U 14088A 26121.80171272 .00029928 00000+0 62356-3 0 9990 2 40362 97.0650 123.1620 0003712 181.6485 178.4753 15.45531511630538 SMAP 1 40376U 15003A 26121.92616325 .00000441 00000+0 94458-4 0 9997 2 40376 98.1291 129.6733 0001675 73.3528 286.7858 14.63397599600859 KOMPSAT-3A 1 40536U 15014A 26121.91140333 .00032491 00000+0 50689-3 0 9994 2 40536 97.6891 109.9701 0057971 347.9933 11.9933 15.51809052614636 SENTINEL-2A 1 40697U 15028A 26120.87202089 .00000077 00000+0 45978-4 0 9999 2 40697 98.5628 196.3969 0001276 84.4074 275.7254 14.30824654566963 GAOFEN-8 1 40701U 15030A 26121.97653484 .00020504 00000+0 44581-3 0 9994 2 40701 97.6924 312.6298 0008973 9.1981 350.9430 15.44322629604313 CARBONITE 1 (CBNT-1) 1 40718U 15032D 26121.97997549 .00002867 00000+0 35449-3 0 9992 2 40718 97.6488 301.9903 0015989 86.8923 273.4121 14.83444520582490 YAOGAN-27 1 40878U 15040A 26121.95993089 -.00000295 00000+0 -66519-3 0 9998 2 40878 100.1135 110.3528 0007866 326.1634 33.8977 13.16066484511588 GAOFEN-9 01 1 40894U 15047A 26121.90636541 .00000895 00000+0 11642-3 0 9996 2 40894 97.6316 159.6963 0025898 293.2246 66.6241 14.82798730573333 YAOGAN-28 1 41026U 15064A 26121.93078576 .00008454 00000+0 32283-3 0 9997 2 41026 97.3008 261.1740 0010597 3.0617 357.0685 15.26830805583628 YAOGAN-29 1 41038U 15069A 26122.02901503 .00000469 00000+0 64337-4 0 9995 2 41038 98.0063 150.5823 0002093 131.0046 229.1349 14.83046221563787 KENT RIDGE 1 1 41167U 15077B 26121.72950690 .00004743 00000+0 16482-3 0 9990 2 41167 14.9799 251.4127 0008361 303.8788 56.0739 15.22850438574001 GAOFEN-4 1 41194U 15083A 26121.93388549 -.00000329 00000+0 00000+0 0 9990 2 41194 0.3897 82.7922 0003183 129.7918 89.1792 1.00271946 38063 JASON-3 1 41240U 16002A 26121.94438913 -.00000021 00000+0 16270-3 0 9995 2 41240 66.0416 223.0547 0008107 274.4497 85.5596 12.87626477481294 SENTINEL-3A 1 41335U 16011A 26121.93083277 .00000003 00000+0 19172-4 0 9992 2 41335 98.6267 189.9733 0000983 101.4148 258.7143 14.26732652531462 ZIYUAN 3-02 (ZY 3-02) 1 41556U 16033A 26121.95176619 .00006820 00000+0 30673-3 0 9997 2 41556 97.3847 198.6079 0014206 96.8534 263.4318 15.21339810550953 CARTOSAT-2C 1 41599U 16040A 26121.95579980 .00004780 00000+0 22961-3 0 9994 2 41599 97.4520 182.5586 0008087 297.3077 62.7333 15.19292126546692 SKYSAT-C1 1 41601U 16040C 26121.63299848 .00009922 00000+0 28955-3 0 9997 2 41601 96.9602 155.8936 0003054 152.6398 207.5008 15.35512464550726 LAPAN-A3 1 41603U 16040E 26121.91041328 .00004141 00000+0 13290-3 0 9992 2 41603 97.1486 119.5895 0010492 170.8855 189.2581 15.32803714547722 GAOFEN-3 1 41727U 16049A 26121.94755309 -.00000030 00000+0 41013-5 0 9992 2 41727 98.4023 130.4294 0001025 66.0402 294.0895 14.42227137511982 SKYSAT-C4 1 41771U 16058B 26121.65550597 .00019338 00000+0 38229-3 0 9994 2 41771 96.9204 145.4175 0003430 89.0197 271.1448 15.47147370538274 SKYSAT-C5 1 41772U 16058C 26121.85837217 .00008549 00000+0 26368-3 0 9997 2 41772 97.0509 164.5781 0004985 98.9343 261.2465 15.33799789536648 SKYSAT-C2 1 41773U 16058D 26121.78125046 .00014134 00000+0 34416-3 0 9990 2 41773 97.0202 145.6517 0002835 178.4995 181.6261 15.41025884537901 SKYSAT-C3 1 41774U 16058E 26121.83579416 .00021280 00000+0 37248-3 0 9997 2 41774 96.9073 154.5147 0002811 101.1952 258.9617 15.50625127538926 ALSAT-1B 1 41785U 16059C 26121.75269762 .00000562 00000+0 96489-4 0 9994 2 41785 97.7766 132.5193 0009971 24.1156 336.0517 14.72239140513746 PATHFINDER 1 1 41787U 16059E 26121.91186586 .00000730 00000+0 13595-3 0 9999 2 41787 97.8175 123.2777 0028377 356.9636 3.1393 14.67606275512922 SCATSAT 1 1 41790U 16059H 26121.88519623 .00001305 00000+0 17793-3 0 9994 2 41790 98.1217 185.1708 0055461 38.5974 321.9181 14.79425664 94745 GOKTURK 1A 1 41875U 16073A 26121.93633347 .00000373 00000+0 82338-4 0 9992 2 41875 98.1306 17.3244 0001414 83.0239 277.1124 14.62798000502064 RESOURCESAT-2A 1 41877U 16074A 26121.89987023 .00000263 00000+0 14002-3 0 9993 2 41877 98.7541 195.7792 0001886 180.1306 179.9872 14.21601996487725 CARTOSAT-2D 1 41948U 17008A 26121.92269264 .00005382 00000+0 25795-3 0 9992 2 41948 97.4141 182.0821 0005365 57.5189 302.6564 15.19323004510550 SENTINEL-2B 1 42063U 17013A 26121.91376894 -.00000044 00000+0 -86010-8 0 9998 2 42063 98.5653 197.3414 0001232 90.1113 270.0211 14.30815313478028 CARTOSAT-2E 1 42767U 17036C 26121.87410962 .00004587 00000+0 22097-3 0 9998 2 42767 97.4310 182.4296 0004478 102.1811 257.9926 15.19222915491114 FORMOSAT-5 1 42920U 17049A 26121.91608286 .00000185 00000+0 57932-4 0 9993 2 42920 98.2257 198.2520 0010610 220.0710 139.9703 14.50880215459968 SENTINEL-5P 1 42969U 17064A 26121.82195706 .00000044 00000+0 41928-4 0 9993 2 42969 98.7947 64.2875 0001228 79.9164 280.2151 14.19510915442989 SKYSAT-C11 1 42987U 17068A 26121.90254929 .00027755 00000+0 40664-3 0 9992 2 42987 97.4298 268.8217 0001522 133.2617 226.8764 15.55536500476049 SKYSAT-C10 1 42988U 17068B 26121.85442837 .00011312 00000+0 34802-3 0 9993 2 42988 97.4440 258.2981 0001675 106.2635 253.8792 15.33830099475258 SKYSAT-C9 1 42989U 17068C 26121.87432535 .00014502 00000+0 35995-3 0 9998 2 42989 97.4363 258.8225 0007329 307.6898 52.3683 15.40430060475624 SKYSAT-C8 1 42990U 17068D 26121.89443439 .00011793 00000+0 33802-3 0 9991 2 42990 97.4454 257.9654 0001250 111.0932 249.0445 15.36057656475202 SKYSAT-C7 1 42991U 17068E 26121.88630186 .00011880 00000+0 34107-3 0 9994 2 42991 97.4469 258.9441 0004668 270.7299 89.3409 15.35996750475266 SKYSAT-C6 1 42992U 17068F 26121.89679621 .00010403 00000+0 32215-3 0 9991 2 42992 97.4502 259.0778 0001421 338.0821 22.0360 15.33646729475225 CARTOSAT-2F 1 43111U 18004A 26121.97154259 .00005303 00000+0 25419-3 0 9991 2 43111 97.4071 182.1385 0002370 89.6408 270.5098 15.19327941460312 GAOFEN-1 02 1 43259U 18031A 26121.94340431 .00001121 00000+0 16848-3 0 9990 2 43259 98.0558 184.5913 0003798 136.6552 223.4957 14.76454223435873 GAOFEN-1 03 1 43260U 18031B 26121.92161527 .00000756 00000+0 11612-3 0 9994 2 43260 98.0549 184.4329 0002047 186.1448 173.9737 14.76415560435860 GAOFEN-1 04 1 43262U 18031D 26121.96487359 .00000659 00000+0 10207-3 0 9995 2 43262 98.0560 184.6615 0000820 110.4202 249.7096 14.76474847435863 SENTINEL-3B 1 43437U 18039A 26121.90399674 .00000126 00000+0 70037-4 0 9990 2 43437 98.6266 190.0948 0001597 88.3999 271.7364 14.26735474417521 GAOFEN-5 01 1 43461U 18043A 26121.88872105 .00000333 00000+0 78564-4 0 9997 2 43461 98.4542 92.5128 0001221 177.4127 182.7079 14.60572312424931 GAOFEN-6 1 43484U 18048A 26121.92351853 .00000304 00000+0 50580-4 0 9990 2 43484 97.7790 186.2957 0011343 331.5996 28.4594 14.76574686426569 GAOFEN-11 01 1 43585U 18063A 26121.95703035 .00010078 00000+0 15764-3 0 9998 2 43585 97.1326 189.0058 0005363 130.3133 229.8591 15.53942973433168 ICESAT-2 1 43613U 18070A 26121.86127410 .00003266 00000+0 11851-3 0 9999 2 43613 92.0024 278.4807 0001644 73.3242 286.8188 15.28283406425380 HYSIS 1 43719U 18096A 26121.92492411 .00000720 00000+0 10534-3 0 9996 2 43719 97.9864 189.0293 0000765 96.2361 263.8938 14.78679369400582 KAZSTSAT 1 43783U 18099AB 26121.66255562 .00000601 00000+0 53101-4 0 9991 2 43783 97.4350 155.6987 0004427 182.6160 177.5041 14.99783855404335 SAUDISAT 5A 1 43831U 18102A 26121.92468248 .00005908 00000+0 22164-3 0 9995 2 43831 97.3100 184.4055 0008119 302.8419 57.2038 15.27573837408616 SAUDISAT 5B 1 43833U 18102C 26121.95169468 .00005374 00000+0 20013-3 0 9990 2 43833 97.3203 187.4181 0008889 305.0465 54.9940 15.27855396408737 GAOFEN-10R 1 44622U 19066A 26121.93572192 .00001291 00000+0 16573-3 0 9997 2 44622 98.0471 75.1902 0004262 295.5792 64.4981 14.82956326355524 CARTOSAT-3 1 44804U 19081A 26121.92083659 .00004304 00000+0 20671-3 0 9992 2 44804 97.4335 184.5224 0010759 317.5283 42.5118 15.19329086356447 GAOFEN-12 01 1 44819U 19082A 26121.98413750 .00000399 00000+0 58905-4 0 9996 2 44819 97.8116 129.5826 0001719 123.8510 236.2867 14.80420231347251 CSG-1 1 44873U 19092A 26121.94165713 .00000470 00000+0 65537-4 0 9995 2 44873 97.8887 306.2134 0001328 94.6437 265.4927 14.82160312344623 NEMO-HD 1 46277U 20061F 26121.92388137 .00011461 00000+0 25617-3 0 9994 2 46277 97.1952 184.3687 0001829 131.9165 228.2240 15.43660021314842 SENTINEL-6A 1 46984U 20086A 26121.70838919 -.00000059 00000+0 96128-5 0 9999 2 46984 66.0415 231.5878 0007819 270.2531 89.7589 12.80930888254378 GAOFEN-12 02 1 48079U 21026A 26121.99030060 .00000398 00000+0 59277-4 0 9991 2 48079 97.9925 120.3624 0005624 38.6227 321.5386 14.80258556274920 PLEIADES NEO 3 1 48268U 21034A 26120.77782369 .00000546 00000+0 75953-4 0 9995 2 48268 97.8935 196.2253 0001371 102.9009 257.2357 14.81675220270637 PLEIADES NEO 4 1 49070U 21073E 26121.75703545 -.00000086 00000+0 -43400-5 0 9992 2 49070 97.8935 197.1861 0001349 93.2058 266.9310 14.81672062254498 LANDSAT 9 1 49260U 21088A 26121.63880409 .00000378 00000+0 93762-4 0 9998 2 49260 98.1868 192.5465 0001310 105.9900 254.1443 14.57124935244222 CSG-2 1 51444U 22008A 26121.90789847 .00000205 00000+0 32266-4 0 9993 2 51444 97.8879 306.1768 0001387 84.2074 275.9298 14.82155481229737 GAOFEN-12 03 1 52912U 22069A 26121.94369706 .00001053 00000+0 14609-3 0 9995 2 52912 97.8341 10.9695 0001027 47.5340 312.5959 14.79959936207775 SWOT 1 54754U 22173A 26121.90028263 .00000102 00000+0 70663-4 0 9990 2 54754 77.6082 97.7923 0000837 138.8461 221.2754 14.00171343172673 GAOFEN-12 04 1 57654U 23123A 26121.89863830 .00001073 00000+0 14822-3 0 9995 2 57654 97.9133 40.5824 0001336 92.8265 267.3100 14.80137275145781 PARS 1 1 59065U 24039Q 26121.94826065 .00012170 00000+0 26172-3 0 9996 2 59065 97.4804 101.4541 0007352 284.6702 75.3731 15.44779386121500 RESURS-P 4 1 59371U 24061A 26121.95355030 .00003626 00000+0 12035-3 0 9990 2 59371 97.2729 70.6768 0002220 55.3160 304.8291 15.31861546116682 LEGION 1 1 59625U 24081A 26121.91283291 .00004528 00000+0 23360-3 0 9994 2 59625 97.5025 200.2597 0010306 172.0792 188.0606 15.16805869110527 LEGION 2 1 59626U 24081B 26121.87958395 .00004690 00000+0 24011-3 0 9998 2 59626 97.5026 200.3179 0011784 146.6096 213.5883 15.17038930110520 ALOS-4 (DAICHI-4) 1 60182U 24123A 26121.82998899 .00001728 00000+0 23811-3 0 9998 2 60182 97.9215 219.6600 0001600 97.0273 263.1121 14.79478626 99021 LEGION 3 1 60452U 24146A 26121.86872286 .00004453 00000+0 24320-3 0 9992 2 60452 45.0014 278.9013 0009177 257.9072 102.0778 15.15698704 94991 LEGION 4 1 60453U 24146B 26121.87033916 .00003905 00000+0 21574-3 0 9992 2 60453 45.0028 10.7833 0012015 46.1162 314.0707 15.15559059 93841 SENTINEL-2C 1 60989U 24157A 26121.94878429 .00000114 00000+0 60126-4 0 9998 2 60989 98.5629 197.3863 0001516 99.0992 261.0363 14.30818127 86371 IONOSFERA-M 1 1 61735U 24199A 26121.91918646 .00000061 00000+0 46908-4 0 9990 2 61735 98.7235 355.5658 0000198 34.1430 325.9761 14.22745486121121 IONOSFERA-M 2 1 61736U 24199B 26121.88326272 .00000066 00000+0 49193-4 0 9999 2 61736 98.7234 355.4412 0001982 90.5513 269.5892 14.22748360124246 BIOMASS 1 63772U 25090A 26121.94225267 .00001046 00000+0 19285-3 0 9998 2 63772 98.0747 309.9271 0001394 87.7314 272.4050 14.67535554 53902 GOSAT-GW (IBUKI GW) 1 64694U 25141A 26121.89495017 -.00000974 00000+0 -16334-3 0 9998 2 64694 98.0552 59.9694 0001397 82.5367 277.5997 14.67558832 45052 IONOSFERA-M 3 1 64876U 25155A 26121.92989729 .00000050 00000+0 42641-4 0 9991 2 64876 98.5997 85.0084 0001741 36.3014 323.8281 14.21478232 39839 IONOSFERA-M 4 1 64877U 25155B 26121.89441725 .00000046 00000+0 40521-4 0 9997 2 64877 98.5996 84.8917 0001232 52.7389 307.3900 14.21480207 39822 MICROCARB 1 64899U 25156A 26121.93569359 .00000561 00000+0 96473-4 0 9990 2 64899 97.9834 199.8983 0017577 62.8763 297.4235 14.72276268 41163 CO3D 3 1 64900U 25156B 26118.55724756 .00004079 00000+0 19143-3 0 9997 2 64900 97.4329 197.9633 0001048 49.5521 310.5805 15.20201512 41996 CO3D 4 1 64901U 25156C 26118.49158032 .00002003 00000+0 95596-4 0 9991 2 64901 97.4326 197.8981 0002016 101.4971 258.6491 15.20211498 41988 CO3D 2 1 64902U 25156D 26118.58987872 .00004362 00000+0 20458-3 0 9998 2 64902 97.4327 197.8942 0000590 63.5253 296.6042 15.20192497 41995 CO3D 1 1 64903U 25156E 26103.64843334 .00003151 00000+0 12932-3 0 9997 2 64903 98.0928 182.3847 0110033 5.8142 354.4339 15.19681462 39726 SENTINEL-6B 1 66514U 25264A 26121.70873358 -.00000051 00000+0 41818-4 0 9996 2 66514 66.0415 231.7132 0007966 269.6209 90.3893 12.80930832 21211 CSG-3 1 67304U 26001A 26121.95431169 .00000394 00000+0 56040-4 0 9993 2 67304 97.8883 306.2253 0001360 84.7843 275.3526 14.82149531 17613